Weather History for Lima, OH

Change the Weather History Date:

Wednesday, February 13, 2013

  Actual Average (KFDY) Record (KFDY)
Temperature  
Mean Temperature 30 °F -  
Max Temperature 35 °F 32 °F 66 °F (1990)
Min Temperature 26 °F 18 °F 0 °F (1979)
Degree Days  
Heating Degree Days 34    
Moisture  
Dew Point 23 °F    
Average Humidity 77    
Maximum Humidity 82    
Minimum Humidity 64    
Precipitation  
Precipitation 0.00 in - - ()
Sea Level Pressure  
Sea Level Pressure 29.84 in    
Wind  
Wind Speed 6 mph (WNW)    
Max Wind Speed 10 mph    
Max Gust Speed -    
Visibility 8 miles    
Events      
Averages and records for this station are not official NWS values.
T = Trace of Precipitation, MM = Missing Value Source: NWS Daily Summary

Daily Weather History Graph

Daily Weather History Graph

Search for Another Location

Airport:

Trip Planner

Search our weather history database for the weather conditions in past years. The results will help you decide how hot, cold, wet, or windy it might be!

Date:

Astronomy

Feb. 13, 2013 Rise Set
Actual Time 7:32 AM EST 6:08 PM EST
Civil Twilight 7:04 AM EST 6:37 PM EST
Nautical Twilight 6:32 AM EST 7:09 PM EST
Astronomical Twilight 6:00 AM EST 7:41 PM EST
Moon 8:59 AM EST (2/13) 10:12 PM EST (2/13)
Length of Visible Light 11h 32m
Length of Day
10h 36m
Waxing Crescent, 13% of the Moon is Illuminated
Feb 13
Waxing Crescent
Feb 17
First Quarter
Feb 25
Full
Mar 4
Last Quarter
Mar 11
New

Hourly Weather History & Observations

Time (EST) Temp. Windchill Dew Point Humidity Pressure Visibility Wind Dir Wind Speed Gust Speed Precip Events Conditions
12:00 AM 30.2 °F 24.3 °F 24.8 °F 80% 29.92 in 9.0 mi WNW 5.8 mph - N/A   Overcast
12:53 AM 28.9 °F 22.8 °F 24.1 °F 82% 29.94 in 8.0 mi NW 5.8 mph - N/A   Overcast
1:53 AM 28.9 °F 22.8 °F 24.1 °F 82% 29.92 in 8.0 mi NNW 5.8 mph - N/A   Overcast
2:53 AM 28.9 °F 19.8 °F 23.0 °F 78% 29.91 in 7.0 mi NW 10.4 mph - N/A   Overcast
3:53 AM 28.0 °F 21.7 °F 21.9 °F 78% 29.90 in 10.0 mi NNW 5.8 mph - N/A   Overcast
4:53 AM 28.0 °F 24.2 °F 21.9 °F 78% 29.88 in 9.0 mi North 3.5 mph - N/A   Overcast
5:53 AM 28.0 °F - 21.9 °F 78% 29.88 in 9.0 mi Calm Calm - N/A   Overcast
7:53 AM 27.0 °F 18.0 °F 21.9 °F 81% 29.83 in 6.0 mi North 9.2 mph - N/A   Haze
8:00 AM 26.6 °F 17.5 °F 21.2 °F 80% 29.80 in 6.0 mi North 9.2 mph - N/A   Haze
8:53 AM 27.0 °F 19.5 °F 21.9 °F 81% 29.85 in 5.0 mi NNE 6.9 mph - N/A   Haze
9:51 AM 26.6 °F - 21.2 °F 80% 29.81 in 7.0 mi Calm Calm - N/A   Overcast
9:53 AM 27.0 °F - 21.9 °F 81% 29.84 in 7.0 mi Calm Calm - N/A   Overcast
10:53 AM 28.0 °F - 23.0 °F 81% 29.84 in 6.0 mi Calm Calm - N/A   Haze
11:53 AM 28.9 °F 25.2 °F 23.0 °F 78% 29.84 in 6.0 mi SW 3.5 mph - N/A   Haze
12:53 PM 28.9 °F 22.8 °F 23.0 °F 78% 29.83 in 5.0 mi West 5.8 mph - N/A   Haze
1:53 PM 30.9 °F 23.5 °F 24.1 °F 76% 29.80 in 5.0 mi WNW 8.1 mph - N/A   Haze
2:17 PM 30.2 °F 23.4 °F 24.8 °F 80% 29.76 in 6.0 mi NW 6.9 mph - N/A   Haze
2:53 PM 32.0 °F 26.4 °F 24.1 °F 73% 29.78 in 6.0 mi NW 5.8 mph - N/A   Haze
3:53 PM 34.0 °F 31.0 °F 24.1 °F 67% 29.78 in 8.0 mi West 3.5 mph - N/A   Clear
4:53 PM 35.1 °F - 24.1 °F 64% 29.78 in 9.0 mi Calm Calm - N/A   Clear
5:53 PM 34.0 °F 28.8 °F 24.1 °F 67% 29.80 in 9.0 mi SW 5.8 mph - N/A   Clear
6:53 PM 32.0 °F 27.5 °F 24.1 °F 73% 29.82 in 10.0 mi South 4.6 mph - N/A   Clear
7:53 PM 30.0 °F 23.2 °F 24.1 °F 79% 29.83 in 9.0 mi South 6.9 mph - N/A   Clear
8:53 PM 30.9 °F 24.3 °F 24.1 °F 76% 29.83 in 8.0 mi South 6.9 mph - N/A   Clear
9:53 PM 32.0 °F 24.8 °F 25.0 °F 75% 29.84 in 9.0 mi South 8.1 mph - N/A   Clear
10:53 PM 32.0 °F 23.6 °F 25.0 °F 75% 29.84 in 10.0 mi South 10.4 mph - N/A   Clear
11:53 PM 33.1 °F 25.5 °F 26.1 °F 75% 29.84 in 9.0 mi South 9.2 mph - N/A   Mostly Cloudy